P/2011 A2 ( Scotti )

Japanese version
Home page
Updated on January 20, 2013

---------------------------------------------------------------------

* Profile

Discovery Date January 11, 2011
Magnitude 20.2 mag
Discoverer J. V. Scotti (Spaewatch, Kitt Peak)

* Pictures

* Orbital Elements

Epoch 2010 Dec. 30.0 TT = JDT 2455560.5
T 2010 Dec. 22.50386 TT                                 MPC
q   1.5587814            (2000.0)            P               Q
n   0.17980318     Peri.   94.58852     -0.85750916     -0.51051185
a   3.1088837      Node    54.72681     +0.43566433     -0.78641290
e   0.4986041      Incl.    4.47393     +0.27363229     -0.34775335
P   5.48
From 221 observations 2011 Jan. 11-May 12, mean residual 0".6.

* Magnitudes Graph

        m1 = 15.5 + 5 log d + 10.0 log r

---------------------------------------------------------------------

The orbital elements are published on M.P.E.C. 2013-A29.
The magnitudes graphs are made with Comet for Windows.

---------------------------------------------------------------------

Copyright(C) Seiichi Yoshida (comet@aerith.net). All rights reserved.